GFSWCAN_2pvu_pres_111.txt.gz
Presure
252 251 237 233 235 235 239 238 226 226 217 216 220 222 218 226 222 228 224 232 225 233 259 274 275 255 253 270 266 282 318 308 363 319 289 283 272 279 283 267 257 248 248 245 241 237 240 240 233 233 238 232 233 235
259 249 245 240 241 236 230 226 230 231 219 225 223 229 225 213 230 236 249 255 240 259 254 252 252 249 254 269 265 285 301 300 307 332 307 291 281 279 291 279 264 272 246 251 247 234 231 238 234 236 231 231 230 237
263 256 241 249 242 231 223 230 242 232 232 223 222 219 232 231 222 240 245 244 257 252 264 260 246 258 259 261 278 277 323 302 316 304 317 287 291 299 285 278 278 267 258 251 251 253 244 241 235 234 235 230 225 224
267 262 256 246 238 241 239 233 227 236 243 228 228 229 233 239 243 250 251 263 266 271 251 252 250 253 271 266 278 300 316 299 312 305 352 300 291 287 284 280 279 276 273 260 259 255 250 254 248 244 236 236 234 233
263 264 258 252 255 255 253 250 252 255 229 236 240 249 250 253 248 276 255 260 248 256 255 243 257 262 254 271 274 316 309 293 299 304 332 340 300 287 285 281 281 279 280 274 271 270 271 259 258 257 252 246 239 234
268 265 266 261 260 256 246 248 251 259 251 245 244 264 262 264 256 258 252 250 249 244 242 251 255 257 268 266 314 308 301 287 307 300 362 379 329 299 288 286 278 272 272 275 281 285 289 282 273 271 267 262 253 249
278 267 259 266 263 262 264 263 265 264 263 269 263 263 259 255 252 254 254 248 243 243 251 257 256 268 266 308 310 302 295 294 303 292 358 352 372 390 304 291 291 280 271 271 273 274 279 284 282 279 276 274 274 276
275 275 275 260 261 259 256 259 260 260 262 261 248 246 245 247 250 250 246 242 250 252 253 255 264 262 282 310 304 292 279 289 296 293 342 334 338 363 375 338 305 290 286 281 273 277 286 284 277 281 276 284 298 300
266 265 269 272 275 265 258 257 259 256 255 252 251 256 250 246 244 248 255 259 260 257 248 263 264 273 321 306 298 287 272 286 290 282 302 320 321 326 342 365 371 359 307 307 295 289 292 303 306 302 294 301 312 313
271 263 272 261 264 268 265 256 254 259 259 252 244 249 255 258 261 261 254 254 247 256 262 260 318 316 314 302 291 287 267 286 292 276 289 291 297 304 312 317 331 347 350 347 345 339 337 335 344 319 315 349 317 320
294 270 259 256 257 255 257 260 260 261 260 257 258 256 256 258 256 258 253 256 263 255 259 287 321 315 305 295 285 280 268 285 292 272 275 284 294 296 297 304 310 312 316 320 324 331 334 351 367 372 379 337 330 310
340 284 269 264 263 259 254 255 255 254 258 257 254 254 253 257 262 263 265 254 253 265 317 315 314 310 301 292 280 274 281 282 292 273 272 287 293 285 290 307 319 325 337 337 335 326 329 327 318 315 314 311 308 307
348 342 324 276 264 261 260 266 265 263 262 260 261 260 259 267 270 251 252 252 306 311 310 313 306 303 295 286 277 266 284 276 281 274 279 282 290 318 342 331 324 319 305 295 289 287 284 282 279 279 279 278 278 278
339 344 350 332 298 275 269 266 266 265 265 262 265 264 270 270 150 267 270 308 224 312 314 242 296 296 289 282 274 266 273 280 274 275 281 311 337 315 293 281 276 275 273 273 274 269 264 264 264 265 267 268 271 271
349 347 341 339 338 332 321 302 292 286 283 282 284 220 285 292 261 301 191 316 309 311 307 303 277 288 287 284 279 263 270 276 281 308 340 317 288 274 269 260 263 264 260 263 267 262 256 262 265 263 260 264 275 270
369 362 345 340 334 331 330 328 326 324 320 319 321 255 315 327 322 323 316 314 310 262 306 300 290 292 290 290 271 264 272 345 357 321 292 278 263 261 261 258 261 252 258 183 244 254 263 267 271 267 263 266 277 289
358 355 364 363 355 346 337 333 331 329 326 326 325 328 327 330 326 322 315 307 310 307 204 206 290 294 293 294 269 273 337 318 301 280 270 257 260 249 251 255 260 237 253 252 259 261 250 124 246 268 257 261 283 284
370 365 358 354 353 356 356 355 353 349 347 345 345 347 337 330 321 318 276 308 308 308 304 295 302 297 296 314 276 348 307 284 270 264 257 248 249 255 246 237 254 257 256 246 247 252 252 251 253 254 256 268 265 279
358 361 363 362 359 356 355 358 355 351 348 345 345 343 342 336 324 320 315 312 303 303 303 305 307 292 287 374 399 304 279 269 258 250 248 251 245 244 250 253 247 253 250 250 250 241 240 252 254 252 255 264 266 281
348 344 342 341 343 344 344 339 338 339 346 359 361 337 329 322 320 311 311 307 304 307 308 282 294 370 392 327 292 273 266 257 248 246 253 246 246 246 242 249 249 247 248 242 246 240 245 248 254 260 265 273 274 282
330 333 337 342 355 369 363 361 357 346 340 337 336 328 321 320 313 310 306 303 307 283 301 341 386 342 304 282 272 261 250 245 251 246 250 237 247 238 244 248 245 243 240 239 246 247 248 245 257 257 265 275 275 282
333 331 329 325 322 321 315 317 317 319 319 319 319 316 314 309 307 306 312 283 307 337 382 345 312 284 275 261 257 248 238 244 246 238 245 241 243 244 247 240 239 245 241 241 245 250 251 249 258 257 266 275 277 285
326 320 316 315 313 311 307 311 311 308 308 307 308 310 308 307 311 293 303 325 370 385 327 290 277 267 258 250 239 248 243 238 239 247 247 242 244 242 239 236 240 243 244 243 250 251 251 256 259 257 264 271 279 285
313 307 305 303 301 303 307 307 309 304 303 303 306 297 302 307 306 326 389 350 331 290 277 269 262 250 235 250 240 239 232 233 246 246 228 239 243 239 239 244 244 229 245 244 249 252 251 256 255 259 265 272 280 287
301 296 291 298 297 293 298 299 302 297 304 304 312 355 358 370 385 389 366 294 281 270 265 251 250 248 243 239 237 244 242 243 235 236 239 239 243 241 238 243 243 245 246 246 249 248 254 254 257 259 270 275 284 288
346 346 350 350 351 352 356 359 362 364 368 372 375 358 354 377 342 293 280 274 254 257 252 246 241 239 239 246 245 241 237 236 240 233 231 238 240 238 236 238 243 248 245 247 250 248 257 252 259 260 274 278 287 293
308 309 312 317 323 326 327 320 316 294 317 337 336 327 301 279 272 272 261 260 251 248 240 239 237 245 241 239 238 240 235 241 239 233 235 237 233 232 238 237 247 251 242 252 242 255 258 258 257 264 278 282 291 301
292 296 298 306 309 311 314 311 306 302 295 286 278 271 270 265 262 259 247 248 243 240 239 244 245 242 235 229 231 246 239 239 237 233 237 238 234 239 240 240 250 246 247 249 243 259 256 260 257 272 280 287 300 307
294 295 294 292 291 290 290 288 283 284 269 270 265 266 261 256 246 250 241 240 238 238 244 239 243 228 231 235 244 241 240 238 237 237 241 239 238 241 232 245 250 241 254 241 254 260 259 259 262 280 284 293 303 318
282 285 286 285 283 279 280 282 281 269 268 263 262 256 252 250 247 242 241 245 239 237 236 236 243 237 237 237 242 243 237 238 239 239 238 243 242 239 243 249 240 252 250 242 258 262 262 260 272 281 290 302 316 329
284 285 282 279 272 269 272 273 274 262 265 249 254 253 247 247 247 241 245 244 248 242 239 245 245 238 238 242 240 235 237 242 241 238 241 242 241 244 244 246 242 252 243 254 261 264 261 267 279 288 301 315 328 385
281 267 268 263 272 262 284 296 273 261 251 255 254 249 246 247 244 238 246 246 239 247 247 235 238 241 242 239 238 237 242 243 238 241 240 239 247 242 250 242 249 245 251 258 265 263 267 279 287 302 313 327 354 459
267 269 273 267 276 264 284 296 265 258 248 252 251 247 246 245 249 251 245 240 244 241 239 239 238 239 238 240 240 242 242 240 241 237 241 234 243 245 245 244 243 253 256 264 265 269 278 288 303 309 322 351 458 451

GFSWCAN_2pvu_pres_114.txt.gz
Presure
278 253 251 251 239 240 229 233 241 235 232 219 215 215 234 215 227 225 224 227 226 230 225 227 227 232 229 255 281 275 266 281 290 315 314 314 297 291 287 278 263 262 252 252 244 248 250 254 241 242 239 236 235 235
278 255 254 249 241 245 243 240 234 227 225 230 224 226 216 211 231 209 212 224 224 219 231 224 223 235 243 281 276 258 279 275 276 321 315 350 302 294 288 272 268 258 251 251 249 260 244 242 247 238 232 238 235 237
276 268 254 254 243 237 237 241 241 238 228 227 223 222 222 229 230 229 220 233 226 228 235 220 234 243 261 268 273 261 268 276 281 317 304 306 316 295 287 295 270 265 259 249 252 251 250 250 247 236 239 239 237 233
275 271 264 251 249 243 239 232 238 239 241 238 238 218 218 222 227 222 222 224 227 228 232 234 248 252 264 268 258 269 275 277 331 315 299 307 344 311 288 281 281 278 264 261 248 251 244 248 244 233 246 240 238 238
273 272 266 262 248 240 241 235 240 233 237 231 231 232 231 227 223 227 239 230 239 242 242 275 273 264 259 253 263 269 273 282 327 309 296 312 304 337 304 293 285 275 274 272 258 261 255 254 247 247 245 236 234 235
269 276 263 266 250 241 243 236 234 235 237 232 228 228 234 221 221 227 227 227 228 248 250 268 259 259 255 254 267 268 273 329 320 300 296 307 303 307 330 295 293 293 302 290 268 260 258 256 258 257 253 255 249 247
274 274 268 268 264 251 246 241 240 250 240 239 238 234 238 239 231 226 236 254 260 250 269 257 256 254 248 269 259 270 296 320 309 295 306 297 360 368 397 340 295 292 290 288 290 283 280 271 266 259 256 256 251 250
265 274 262 271 264 258 254 247 249 259 246 239 234 233 235 243 247 253 251 253 247 263 252 249 255 249 267 259 266 271 321 312 296 296 294 328 336 346 389 393 340 300 286 282 284 286 284 285 288 286 288 287 288 288
270 266 266 267 266 264 259 254 251 248 248 250 254 253 251 249 257 268 265 261 255 241 252 244 249 265 253 265 266 319 316 303 288 293 287 292 313 320 330 352 379 362 306 294 285 282 283 284 284 283 284 284 289 293
279 256 267 266 261 265 266 261 259 256 259 256 253 251 258 261 263 260 252 250 248 251 250 260 260 251 258 260 277 325 307 296 277 296 284 289 294 296 306 310 330 355 360 356 351 307 301 298 299 306 313 348 384 377
322 260 257 265 262 262 262 257 254 253 251 249 255 258 261 259 254 256 254 254 240 242 256 255 260 260 260 267 328 314 297 289 279 286 287 282 289 294 296 298 309 320 328 336 333 335 339 343 341 354 350 347 341 335
330 275 259 268 261 259 261 257 255 255 255 254 258 260 258 258 260 260 252 257 250 250 253 260 257 257 262 328 319 301 293 275 296 287 284 274 287 290 290 291 294 305 312 317 330 339 327 316 307 302 296 291 288 288
331 319 264 262 268 273 268 263 262 262 259 259 258 258 258 256 250 243 184 244 255 255 244 260 263 264 323 321 311 298 287 268 289 291 280 280 281 312 323 345 344 414 322 304 291 287 284 280 277 277 275 273 271 271
329 323 309 266 257 258 273 272 258 260 268 267 268 268 258 265 205 166 249 183 204 255 264 257 269 333 321 314 303 292 284 273 284 278 277 281 325 331 301 292 286 280 277 276 262 262 265 268 264 263 261 259 259 256
335 324 314 315 276 264 257 255 254 254 261 259 262 263 249 237 200 253 249 255 257 186 225 272 324 324 316 306 301 291 272 274 279 276 280 340 294 282 277 268 262 261 255 264 261 258 260 251 259 271 276 276 269 266
343 339 326 316 309 294 277 270 264 262 261 263 250 253 259 246 255 255 195 248 247 269 290 328 319 315 309 303 297 290 266 273 278 290 348 289 275 262 265 253 259 253 257 252 242 245 259 257 255 259 256 258 262 257
337 339 336 332 322 313 307 291 274 269 266 261 260 259 256 255 258 258 200 249 293 319 321 328 318 309 304 299 293 287 265 275 371 346 286 272 261 257 254 249 259 244 237 250 245 256 255 253 254 251 236 253 258 256
340 333 336 340 340 333 319 314 309 293 277 273 215 275 273 274 279 288 275 310 325 323 328 300 299 308 300 300 294 287 271 337 318 281 268 261 250 250 258 247 241 249 246 258 253 252 251 248 244 249 248 249 253 256
360 347 340 334 333 332 332 336 332 327 324 321 324 322 319 314 316 314 312 324 325 328 329 319 311 301 300 302 297 269 304 316 278 264 260 250 251 246 243 238 246 251 256 250 249 242 246 249 249 251 247 252 251 253
363 361 351 344 340 335 336 331 329 324 319 321 325 323 323 324 216 328 329 305 326 330 321 308 305 299 302 299 272 297 314 275 261 261 252 253 244 241 239 244 249 255 249 246 244 240 245 249 249 250 250 255 257 258
366 359 356 354 354 355 353 355 353 348 350 349 346 345 346 346 345 344 333 330 330 323 308 306 308 306 310 269 298 314 277 262 258 248 247 246 229 240 244 238 240 245 243 244 243 246 242 244 246 250 254 252 254 255
357 357 359 360 357 354 351 348 349 352 354 353 353 351 350 354 354 349 341 334 318 308 306 313 311 286 355 395 310 277 263 252 255 246 245 242 242 241 239 247 246 239 242 244 229 243 247 240 249 246 254 257 258 255
328 332 333 334 337 340 341 345 342 344 348 355 367 368 348 342 341 339 326 308 308 306 304 292 330 385 358 284 270 260 253 245 244 237 232 241 242 241 241 239 241 240 245 241 244 246 241 249 249 242 259 260 260 258
348 348 349 349 347 348 348 346 341 340 336 333 331 327 328 328 325 318 308 308 301 300 326 364 403 289 275 266 256 246 247 239 232 243 247 241 237 241 244 243 239 237 241 239 242 249 240 251 245 251 260 263 260 262
316 309 318 317 313 321 317 320 317 317 316 315 315 317 319 320 314 319 302 303 323 347 393 345 277 271 259 247 250 239 235 231 238 247 238 239 237 236 240 240 238 237 236 236 248 244 248 251 242 254 262 263 263 265
303 307 301 309 307 309 306 309 310 311 312 313 313 318 318 329 304 301 323 342 385 376 282 270 259 250 255 245 239 237 234 245 243 241 239 229 231 239 238 235 234 239 231 239 251 237 250 244 246 257 263 262 270 268
295 292 292 292 294 300 301 301 304 292 299 304 312 316 332 334 361 376 411 386 283 271 258 254 254 249 240 243 242 244 242 236 241 240 239 238 236 240 238 238 239 239 241 243 246 241 248 244 251 259 261 269 268 276
332 335 337 344 343 350 357 364 372 376 378 369 364 364 371 378 386 303 277 270 258 257 253 252 241 241 240 242 241 240 241 238 240 240 241 238 238 240 239 241 242 238 245 246 243 245 246 251 255 262 266 271 272 288
303 304 306 307 308 309 316 319 318 325 338 339 343 334 326 283 280 266 260 261 254 255 242 239 239 247 247 234 232 236 246 244 242 243 239 238 244 242 240 245 234 247 242 243 247 243 251 253 261 265 273 273 287 294
287 298 298 299 300 303 309 310 311 310 311 304 290 282 281 267 266 261 254 251 246 245 246 245 246 245 234 232 233 242 244 246 242 239 236 244 240 241 242 238 237 243 242 250 242 247 253 257 264 271 274 281 292 296
293 292 291 291 291 293 290 287 287 286 280 273 268 269 262 249 251 251 247 249 241 245 241 242 239 240 239 244 239 240 241 244 238 238 242 244 244 241 243 237 243 240 248 244 243 252 254 262 268 275 278 290 294 308
288 285 286 285 285 283 279 278 274 269 268 267 264 252 248 253 249 249 246 252 240 241 246 238 238 240 247 237 240 245 239 240 240 240 242 241 232 244 242 243 239 244 249 241 251 254 262 266 277 276 289 297 307 320
286 285 281 279 277 278 282 271 272 266 264 256 251 250 249 252 251 248 245 248 248 253 241 241 247 248 241 240 240 238 237 244 241 242 240 243 247 244 244 244 243 248 241 251 254 263 265 278 276 289 297 306 321 435

GFSWCAN_2pvu_pres_117.txt.gz
Presure
267 290 269 262 251 247 248 237 235 231 238 235 241 235 232 227 228 219 218 222 225 221 212 231 229 226 222 232 228 225 237 254 279 268 291 286 326 328 316 286 281 261 272 259 261 260 250 259 239 247 245 248 235 241
267 276 275 269 250 244 236 240 239 228 238 236 223 219 233 231 230 224 216 222 216 236 214 220 222 221 220 224 222 231 244 268 267 273 289 323 324 328 316 310 314 278 272 268 266 252 252 248 242 249 242 245 236 230
267 271 276 268 249 248 242 249 239 229 238 235 236 225 218 224 227 233 237 237 226 231 218 231 220 227 227 229 237 240 273 267 262 282 283 338 324 358 314 297 307 275 262 268 269 256 253 252 251 244 240 249 232 242
265 268 277 271 252 244 246 246 244 234 233 236 232 237 233 231 232 234 213 210 227 228 218 230 234 233 225 248 231 254 264 266 267 276 286 334 319 304 343 306 289 291 265 260 264 260 260 249 251 255 251 248 243 236
264 268 277 275 260 248 244 249 242 244 240 230 226 228 229 234 230 228 233 232 225 213 234 228 230 222 221 239 272 265 265 262 273 277 330 326 312 304 302 341 300 285 290 268 256 264 252 258 253 252 245 250 253 249
262 265 275 274 266 249 243 244 244 243 248 237 248 237 229 235 240 226 232 234 230 223 224 232 214 232 235 268 271 260 256 268 270 280 331 315 303 299 310 304 334 295 284 282 278 266 262 254 260 257 248 251 255 247
268 261 268 276 267 257 248 243 242 240 242 245 240 232 240 233 232 234 236 235 231 225 225 232 237 235 266 265 256 250 271 267 270 336 318 304 304 310 305 307 300 326 302 286 275 285 274 264 265 259 257 256 254 256
301 264 264 273 257 268 249 245 247 241 235 233 229 230 237 236 226 229 235 220 221 232 232 234 241 269 265 250 252 263 260 264 276 322 305 291 297 331 351 377 364 301 318 313 298 286 280 276 277 282 268 261 262 262
309 262 246 264 259 266 265 248 244 247 246 236 235 243 241 236 238 236 237 242 238 226 237 253 267 262 249 255 253 257 263 268 321 314 295 294 296 309 327 346 379 397 399 327 310 298 295 294 299 304 295 291 288 286
311 288 257 264 260 261 263 261 249 245 244 243 238 237 237 241 231 243 243 237 243 248 252 260 258 248 254 250 257 252 261 273 323 304 290 288 292 298 297 311 322 346 377 371 382 315 297 292 293 292 291 293 297 306
312 311 265 265 259 260 259 256 256 255 255 247 245 237 243 243 247 256 254 244 251 247 249 256 263 250 253 258 260 259 270 326 317 294 284 294 283 288 301 296 310 325 349 368 359 351 339 339 326 320 324 360 356 338
319 314 280 260 261 260 262 258 256 252 251 249 251 250 253 245 247 249 252 255 245 249 242 268 249 250 256 252 261 266 301 328 309 290 284 292 279 290 296 295 298 299 309 319 323 323 337 341 331 321 308 295 289 283
339 312 295 262 260 260 260 258 256 261 259 255 250 250 252 251 254 253 203 244 188 257 261 241 251 261 255 263 258 272 334 317 304 281 296 290 280 285 318 328 320 317 319 333 317 303 293 288 282 278 275 274 269 266
355 310 301 280 258 256 267 261 256 260 261 259 255 253 259 256 244 234 238 241 253 251 241 255 263 255 260 252 267 337 324 310 288 281 283 280 282 327 345 343 378 309 293 286 281 276 272 266 265 263 262 266 273 251
351 315 300 292 274 258 258 262 259 257 258 258 260 256 254 243 223 247 253 207 214 254 249 238 255 249 254 264 327 326 318 302 277 284 279 278 328 309 292 282 279 278 269 267 267 259 259 257 262 252 251 249 252 264
346 321 303 295 286 271 258 255 258 260 260 260 251 254 256 254 199 189 143 199 233 222 265 257 260 260 264 286 330 318 313 293 271 279 273 304 301 284 274 264 263 263 258 257 254 250 248 254 249 255 261 256 251 247
345 319 310 297 290 279 265 260 260 251 262 263 262 254 252 257 254 252 258 185 205 249 152 244 259 265 289 326 324 314 307 277 269 275 279 302 281 269 263 260 255 256 253 238 250 248 256 258 258 254 250 253 254 253
340 331 314 305 294 286 273 263 255 256 250 260 248 261 242 250 247 256 263 171 260 255 264 265 266 282 321 326 321 307 299 264 274 280 340 282 269 262 258 251 258 239 251 243 255 254 247 250 249 251 252 250 249 251
337 334 322 312 305 299 289 278 269 260 257 257 193 253 257 260 257 205 223 263 187 175 266 273 306 317 325 329 316 300 291 271 275 361 283 269 262 251 257 248 247 251 242 248 245 248 248 245 248 248 244 245 247 242
339 336 328 323 317 309 303 296 296 290 279 279 279 274 272 271 242 268 271 275 280 282 289 314 313 289 217 320 306 299 268 274 327 286 270 262 250 254 245 240 249 245 239 252 244 245 247 243 241 248 242 246 248 243
334 336 340 338 329 326 322 314 310 306 305 301 301 299 297 298 294 294 300 306 316 318 313 318 329 334 324 310 309 302 273 305 293 270 262 255 254 244 239 245 243 237 239 244 245 250 244 240 246 248 240 247 247 241
363 345 332 333 335 340 335 334 326 323 324 320 320 317 315 313 319 325 325 323 316 316 328 327 334 326 320 309 305 276 286 316 273 262 255 251 239 237 243 240 238 239 239 246 242 241 241 237 250 241 242 248 243 241
357 355 354 348 343 340 344 338 339 342 343 335 335 332 330 331 333 335 337 338 331 333 328 332 327 319 307 302 322 287 317 275 264 252 252 247 245 242 241 241 239 237 246 243 239 239 239 235 250 239 239 245 244 248
356 355 353 352 355 357 359 362 363 359 357 360 361 360 360 365 366 365 361 350 344 338 333 333 312 298 317 302 286 314 276 266 258 250 240 239 241 244 241 240 240 243 241 239 239 238 239 240 246 243 244 244 246 250
338 342 344 345 345 346 350 350 349 344 348 352 354 363 360 353 347 342 338 339 338 331 308 323 317 287 314 387 395 275 267 257 248 238 240 247 245 236 239 236 237 239 240 237 243 237 244 245 241 248 242 245 247 255
350 346 349 351 354 359 359 356 350 345 342 340 337 333 329 327 325 322 320 318 312 319 296 287 327 363 400 307 272 261 253 243 239 240 249 241 239 240 230 234 237 239 241 241 243 236 245 239 246 249 240 247 251 259
306 305 308 312 314 317 315 314 314 314 315 315 317 315 318 319 313 311 312 308 291 308 325 357 391 291 275 263 253 248 239 241 244 245 240 244 242 239 238 237 242 240 237 242 239 237 242 240 250 243 243 250 258 262
296 298 304 305 309 308 306 308 308 308 306 310 306 316 307 317 325 331 307 312 328 355 396 298 278 265 255 251 243 240 249 245 240 238 241 241 239 244 241 240 244 241 240 241 238 243 240 247 246 240 251 252 260 266
330 337 344 348 354 358 360 354 310 310 315 314 319 310 314 359 306 321 357 419 380 294 279 266 257 251 247 241 252 247 240 240 243 245 245 243 242 246 239 242 243 241 242 242 241 247 242 245 240 252 250 259 266 272
305 308 308 312 315 321 328 334 338 337 338 342 348 351 356 356 354 344 331 308 279 267 258 251 249 246 247 254 238 239 238 237 241 244 240 246 245 240 240 242 239 239 242 243 248 244 248 243 253 252 260 266 272 275
288 288 297 298 297 297 302 308 308 309 309 309 311 310 310 313 316 301 278 266 257 252 249 246 245 252 256 241 239 236 236 237 238 240 243 245 242 241 240 241 238 242 244 244 251 250 243 250 251 260 264 270 277 280
291 293 296 297 297 297 295 295 293 295 297 299 301 301 303 281 273 267 258 254 251 248 241 251 247 246 247 244 240 243 247 241 241 244 242 240 241 245 242 240 242 246 242 252 252 245 249 251 259 264 268 276 278 286
290 289 291 291 291 292 293 294 294 294 291 289 283 278 267 266 255 250 253 245 250 248 246 244 248 243 239 241 243 245 242 242 242 241 238 241 243 245 241 242 246 242 251 256 248 248 252 257 265 268 275 278 285 293

GFSWCAN_2pvu_pres_120.txt.gz
Presure
297 274 261 274 254 267 263 241 237 244 237 246 234 224 228 237 237 218 229 226 218 224 217 216 214 226 207 222 216 220 226 229 226 232 243 278 273 287 324 346 314 304 282 279 280 249 248 234 248 244 251 247 248 251
312 282 262 279 254 262 266 245 239 250 228 246 238 245 233 248 234 222 225 239 223 227 215 206 224 219 226 219 229 228 224 229 230 230 277 272 270 292 332 354 331 302 286 268 280 259 257 248 239 249 238 245 250 233
313 285 262 280 261 252 266 253 244 253 237 238 249 246 237 229 239 243 220 223 227 228 215 227 217 211 225 223 226 225 234 223 230 241 267 264 280 289 345 343 318 308 287 278 271 279 262 258 245 247 252 240 250 240
302 308 261 264 270 258 252 243 247 251 253 240 250 225 235 237 222 238 234 222 219 228 219 222 224 235 211 229 223 230 223 220 240 268 261 269 276 324 335 317 337 308 299 294 273 267 271 267 252 255 247 250 238 243
299 310 265 260 272 274 259 245 246 240 250 248 229 231 226 229 231 225 228 214 212 219 216 219 227 220 227 221 230 227 227 236 269 258 259 270 283 344 329 318 301 310 300 291 297 272 267 265 272 260 249 245 248 252
321 314 265 265 252 266 264 252 245 239 252 244 242 226 222 230 231 227 223 221 225 223 229 225 231 233 233 219 232 228 234 264 258 256 265 275 341 332 319 312 303 293 309 293 289 279 270 268 268 266 267 260 252 247
309 309 266 267 252 273 266 258 250 240 232 235 235 237 235 226 250 228 227 235 232 228 231 225 231 231 212 226 225 237 266 262 253 256 266 280 333 318 308 306 302 295 300 320 291 284 283 267 261 262 261 266 267 263
303 306 266 267 267 268 261 258 255 245 238 238 241 249 241 234 231 238 225 230 230 234 228 227 236 203 228 229 233 252 259 254 253 260 274 300 324 307 298 301 306 303 305 308 330 296 284 284 274 266 263 261 262 261
301 301 265 264 258 276 261 260 252 248 245 241 242 233 239 241 225 240 235 230 229 225 225 223 227 238 234 237 246 260 256 252 258 265 273 335 312 297 294 300 329 350 402 347 296 300 310 291 282 281 282 282 279 275
301 300 265 257 260 265 266 255 249 244 245 243 245 242 242 242 242 239 241 217 243 236 235 231 233 240 238 247 249 260 251 253 255 268 309 322 303 291 291 293 301 317 328 357 391 318 297 316 311 294 286 284 283 278
299 301 268 256 256 264 261 259 250 248 250 245 244 242 244 238 229 234 231 232 237 229 229 234 255 252 250 245 261 251 258 249 260 266 336 313 293 296 290 285 299 306 314 326 366 367 379 381 330 309 308 299 296 297
301 301 274 258 255 258 264 265 253 243 238 242 247 241 238 237 239 235 237 240 226 235 239 240 235 248 236 255 244 257 257 253 261 318 324 304 286 293 286 287 297 293 307 341 356 349 347 349 352 341 327 332 344 315
299 306 293 258 255 254 265 263 263 253 249 246 244 242 245 244 239 240 239 238 136 239 142 237 248 252 253 249 245 256 256 258 271 334 312 288 287 295 284 286 287 288 293 310 313 329 337 326 316 306 295 288 283 277
307 305 302 284 257 259 252 265 262 257 258 253 245 240 242 237 232 241 250 241 244 248 247 151 221 250 252 250 247 251 258 255 351 322 293 284 287 282 288 355 391 319 316 333 309 296 291 286 281 276 270 266 265 263
331 308 301 300 267 256 259 267 257 258 265 262 256 248 245 244 251 201 201 213 215 221 254 244 248 248 256 243 254 257 258 282 335 310 287 281 280 284 320 322 352 325 295 287 281 276 272 266 262 261 253 257 246 248
340 317 298 301 280 263 257 254 259 258 256 258 256 251 244 244 246 245 215 249 254 219 252 194 192 227 244 256 252 250 267 347 319 301 282 277 274 321 294 283 277 281 271 272 265 261 260 251 253 246 241 252 255 254
346 312 298 299 289 275 256 259 266 255 260 258 257 252 252 252 252 177 240 213 150 151 256 252 250 241 250 256 251 264 281 331 315 295 276 275 283 298 281 275 266 265 261 256 250 250 250 243 248 254 247 257 254 251
341 309 303 298 295 284 270 255 251 257 255 261 258 262 251 248 250 261 255 214 258 244 207 254 205 258 253 231 265 272 337 322 310 288 272 274 314 284 273 255 264 254 255 246 250 247 252 241 238 246 242 247 249 245
340 315 303 302 301 293 285 272 261 250 252 255 260 262 260 265 250 220 258 259 256 254 247 242 251 250 257 273 270 299 327 318 306 281 273 289 292 274 267 263 250 253 245 251 246 243 241 243 247 244 245 239 248 245
340 338 308 303 302 300 294 282 276 266 257 234 249 249 245 250 260 198 256 233 243 248 194 177 253 261 270 278 296 326 324 313 304 271 275 356 282 269 263 257 252 247 249 247 240 240 244 237 246 247 242 238 249 245
338 340 333 308 304 299 298 292 285 280 276 270 264 257 160 249 259 259 249 248 254 261 262 262 268 276 286 297 204 341 324 313 299 277 295 309 275 262 259 251 242 249 246 240 242 241 243 241 244 238 236 237 243 247
334 338 335 311 304 301 298 297 290 288 287 280 276 270 269 264 258 263 266 267 270 276 204 280 285 299 303 320 323 337 324 312 290 278 323 284 265 261 251 246 243 246 240 240 237 238 245 241 234 238 237 244 244 241
333 334 336 334 309 304 300 300 296 295 288 287 286 282 277 280 282 284 284 285 285 291 299 281 305 318 321 316 343 333 319 305 288 278 311 278 265 258 249 238 245 243 242 238 239 245 242 238 240 239 239 245 240 240
339 336 334 334 337 326 312 307 308 304 303 302 300 298 296 298 299 304 307 310 311 314 319 325 328 323 323 350 330 315 319 313 279 318 287 270 258 250 246 243 243 241 240 238 239 240 239 239 243 243 236 244 239 247
342 334 332 334 336 330 332 336 334 335 338 334 335 339 338 342 351 343 338 332 331 335 334 333 346 343 340 334 318 319 307 296 304 310 275 259 251 251 248 245 240 240 238 232 239 236 245 236 242 244 236 245 240 250
359 359 358 358 359 346 351 351 350 354 354 358 362 363 366 374 372 364 360 363 368 368 365 357 352 342 326 317 309 327 318 299 319 276 260 250 248 247 245 239 242 237 238 237 232 247 244 240 242 239 245 241 251 251
351 351 354 350 354 353 358 356 354 351 353 362 364 368 363 354 347 347 351 353 353 351 351 343 322 314 311 316 329 293 308 310 274 260 251 245 248 242 240 244 244 240 243 239 242 247 244 241 242 243 246 249 255 249
314 315 317 327 334 335 334 335 334 333 332 332 330 327 326 324 326 332 331 324 326 309 316 319 321 316 298 346 285 380 294 270 258 249 248 245 242 243 243 242 241 245 246 240 245 244 239 240 241 244 243 253 251 251
305 310 308 313 316 316 317 316 316 320 326 322 319 316 318 324 328 319 305 312 317 314 300 293 335 355 393 365 300 278 258 251 250 244 243 244 241 240 246 246 247 246 243 241 243 243 238 242 244 241 250 259 252 252
327 333 336 343 347 353 327 302 300 303 305 306 308 318 317 313 321 340 322 306 316 329 346 384 377 295 280 271 258 252 250 250 248 248 243 242 245 245 241 244 243 246 243 244 244 240 240 242 241 247 254 252 259 251
307 308 310 314 315 318 321 326 331 337 342 348 354 336 320 298 312 354 358 370 362 345 320 286 277 267 258 256 254 257 247 245 243 239 237 241 241 241 243 247 242 240 242 245 243 239 242 243 247 251 254 261 252 261
296 294 298 302 302 303 305 307 311 315 317 319 321 323 326 327 327 323 319 317 307 282 270 263 259 253 254 253 256 248 241 241 239 238 243 245 243 241 243 241 237 235 239 243 245 242 251 261 252 259 256 254 261 265
297 297 292 290 293 292 294 293 297 297 299 301 304 304 306 306 305 307 303 278 266 261 259 255 251 250 251 250 248 246 246 244 243 243 245 246 251 252 252 240 242 243 254 242 242 257 245 262 253 258 260 262 265 273